owner,sensor,date,latitude,longitude,sea_surface_height_above_sea_level,qcFlag 
TCOON,ioos:station:TCOON:005:1,2015-02-01T00:18:00Z,27.6346,-97.2370,0.943,1111122 
TCOON,ioos:station:TCOON:005:1,2015-02-01T01:12:00Z,27.6346,-97.2370,0.955,1111122 
TCOON,ioos:station:TCOON:005:1,2015-02-01T02:18:00Z,27.6346,-97.2370,0.966,1111122 
TCOON,ioos:station:TCOON:005:1,2015-02-01T03:12:00Z,27.6346,-97.2370,0.975,1111122 
TCOON,ioos:station:TCOON:005:1,2015-02-01T04:12:00Z,27.6346,-97.2370,0.977,1111122 
TCOON,ioos:station:TCOON:005:1,2015-02-01T05:18:00Z,27.6346,-97.2370,0.948,1111122 
TCOON,ioos:station:TCOON:005:1,2015-02-01T06:18:00Z,27.6346,-97.2370,0.981,1111122 
TCOON,ioos:station:TCOON:005:1,2015-02-01T07:18:00Z,27.6346,-97.2370,1.018,1111122 
TCOON,ioos:station:TCOON:005:1,2015-02-01T08:18:00Z,27.6346,-97.2370,1.024,1111122 
TCOON,ioos:station:TCOON:005:1,2015-02-01T09:18:00Z,27.6346,-97.2370,1.026,1111122 
TCOON,ioos:station:TCOON:005:1,2015-02-01T10:12:00Z,27.6346,-97.2370,1.026,1111122 
TCOON,ioos:station:TCOON:005:1,2015-02-01T11:18:00Z,27.6346,-97.2370,1.012,1111122 
TCOON,ioos:station:TCOON:005:1,2015-02-01T12:12:00Z,27.6346,-97.2370,0.999,1111122 
TCOON,ioos:station:TCOON:005:1,2015-02-01T13:18:00Z,27.6346,-97.2370,0.982,1111122 
TCOON,ioos:station:TCOON:005:1,2015-02-01T14:12:00Z,27.6346,-97.2370,0.968,1111122 
TCOON,ioos:station:TCOON:005:1,2015-02-01T15:12:00Z,27.6346,-97.2370,0.95,1111122 
TCOON,ioos:station:TCOON:005:1,2015-02-01T16:18:00Z,27.6346,-97.2370,0.926,1111122 
TCOON,ioos:station:TCOON:005:1,2015-02-01T17:12:00Z,27.6346,-97.2370,0.91,1111122 
TCOON,ioos:station:TCOON:005:1,2015-02-01T18:12:00Z,27.6346,-97.2370,0.907,1111122 
TCOON,ioos:station:TCOON:005:1,2015-02-01T19:18:00Z,27.6346,-97.2370,0.913,1111122 
TCOON,ioos:station:TCOON:005:1,2015-02-01T20:18:00Z,27.6346,-97.2370,0.915,1111122 
TCOON,ioos:station:TCOON:005:1,2015-02-01T21:12:00Z,27.6346,-97.2370,0.928,1111122 
TCOON,ioos:station:TCOON:005:1,2015-02-01T22:18:00Z,27.6346,-97.2370,0.959,1111122 
TCOON,ioos:station:TCOON:005:1,2015-02-01T23:12:00Z,27.6346,-97.2370,0.965,1111122 
TCOON,ioos:station:TCOON:005:1,2015-02-02T00:18:00Z,27.6346,-97.2370,0.981,1111122 
TCOON,ioos:station:TCOON:005:1,2015-02-02T01:18:00Z,27.6346,-97.2370,0.995,1111122 
TCOON,ioos:station:TCOON:005:1,2015-02-02T02:18:00Z,27.6346,-97.2370,1.003,1111122 
TCOON,ioos:station:TCOON:005:1,2015-02-02T03:12:00Z,27.6346,-97.2370,1.008,1111122 
TCOON,ioos:station:TCOON:005:1,2015-02-02T04:12:00Z,27.6346,-97.2370,1.03,1111122 
TCOON,ioos:station:TCOON:005:1,2015-02-02T05:18:00Z,27.6346,-97.2370,1.055,1111122 
TCOON,ioos:station:TCOON:005:1,2015-02-02T06:18:00Z,27.6346,-97.2370,1.065,1111122 
TCOON,ioos:station:TCOON:005:1,2015-02-02T07:18:00Z,27.6346,-97.2370,1.066,1111122 
TCOON,ioos:station:TCOON:005:1,2015-02-02T08:18:00Z,27.6346,-97.2370,1.068,1111122 
TCOON,ioos:station:TCOON:005:1,2015-02-02T09:18:00Z,27.6346,-97.2370,1.07,1111122 
TCOON,ioos:station:TCOON:005:1,2015-02-02T10:12:00Z,27.6346,-97.2370,1.079,1111122 
TCOON,ioos:station:TCOON:005:1,2015-02-02T11:12:00Z,27.6346,-97.2370,1.061,1111122 
TCOON,ioos:station:TCOON:005:1,2015-02-02T12:18:00Z,27.6346,-97.2370,1.03,1111122 
TCOON,ioos:station:TCOON:005:1,2015-02-02T13:12:00Z,27.6346,-97.2370,1.006,1111122 
TCOON,ioos:station:TCOON:005:1,2015-02-02T14:18:00Z,27.6346,-97.2370,0.978,1111122 
TCOON,ioos:station:TCOON:005:1,2015-02-02T15:18:00Z,27.6346,-97.2370,0.955,1111122 
TCOON,ioos:station:TCOON:005:1,2015-02-02T16:18:00Z,27.6346,-97.2370,0.927,1111122 
TCOON,ioos:station:TCOON:005:1,2015-02-02T17:18:00Z,27.6346,-97.2370,0.903,1111122 
TCOON,ioos:station:TCOON:005:1,2015-02-02T18:18:00Z,27.6346,-97.2370,0.882,1111122 
TCOON,ioos:station:TCOON:005:1,2015-02-02T19:18:00Z,27.6346,-97.2370,0.889,1111122 
TCOON,ioos:station:TCOON:005:1,2015-02-02T20:18:00Z,27.6346,-97.2370,0.883,1111122 
TCOON,ioos:station:TCOON:005:1,2015-02-02T21:18:00Z,27.6346,-97.2370,0.884,1111122 
TCOON,ioos:station:TCOON:005:1,2015-02-02T22:30:00Z,27.6346,-97.2370,0.891,1111122 
TCOON,ioos:station:TCOON:005:1,2015-02-02T23:12:00Z,27.6346,-97.2370,0.893,1111122 
TCOON,ioos:station:TCOON:005:1,2015-02-03T00:18:00Z,27.6346,-97.2370,0.906,1111122 
TCOON,ioos:station:TCOON:005:1,2015-02-03T01:24:00Z,27.6346,-97.2370,0.923,1111122 
TCOON,ioos:station:TCOON:005:1,2015-02-03T02:18:00Z,27.6346,-97.2370,0.932,1111122 
TCOON,ioos:station:TCOON:005:1,2015-02-03T03:12:00Z,27.6346,-97.2370,0.936,1111122 
TCOON,ioos:station:TCOON:005:1,2015-02-03T04:18:00Z,27.6346,-97.2370,0.945,1111122 
TCOON,ioos:station:TCOON:005:1,2015-02-03T05:18:00Z,27.6346,-97.2370,0.948,1111122 
TCOON,ioos:station:TCOON:005:1,2015-02-03T06:18:00Z,27.6346,-97.2370,0.951,1111122 
TCOON,ioos:station:TCOON:005:1,2015-02-03T07:18:00Z,27.6346,-97.2370,0.957,1111122 
TCOON,ioos:station:TCOON:005:1,2015-02-03T08:18:00Z,27.6346,-97.2370,0.954,1111122 
TCOON,ioos:station:TCOON:005:1,2015-02-03T09:18:00Z,27.6346,-97.2370,0.955,1111122 
TCOON,ioos:station:TCOON:005:1,2015-02-03T10:18:00Z,27.6346,-97.2370,0.956,1111122 
TCOON,ioos:station:TCOON:005:1,2015-02-03T11:12:00Z,27.6346,-97.2370,0.948,1111122 
TCOON,ioos:station:TCOON:005:1,2015-02-03T12:18:00Z,27.6346,-97.2370,0.939,1111122 
TCOON,ioos:station:TCOON:005:1,2015-02-03T13:18:00Z,27.6346,-97.2370,0.925,1111122 
TCOON,ioos:station:TCOON:005:1,2015-02-03T14:18:00Z,27.6346,-97.2370,0.908,1111122 
TCOON,ioos:station:TCOON:005:1,2015-02-03T15:18:00Z,27.6346,-97.2370,0.899,1111122 
TCOON,ioos:station:TCOON:005:1,2015-02-03T16:18:00Z,27.6346,-97.2370,0.886,1111122 
TCOON,ioos:station:TCOON:005:1,2015-02-03T17:18:00Z,27.6346,-97.2370,0.881,1111122 
TCOON,ioos:station:TCOON:005:1,2015-02-03T18:18:00Z,27.6346,-97.2370,0.877,1111122 
TCOON,ioos:station:TCOON:005:1,2015-02-03T19:18:00Z,27.6346,-97.2370,0.882,1111122 
TCOON,ioos:station:TCOON:005:1,2015-02-03T20:18:00Z,27.6346,-97.2370,0.884,1111122 
TCOON,ioos:station:TCOON:005:1,2015-02-03T21:18:00Z,27.6346,-97.2370,0.886,1111122 
TCOON,ioos:station:TCOON:005:1,2015-02-03T22:18:00Z,27.6346,-97.2370,0.885,1111122 
TCOON,ioos:station:TCOON:005:1,2015-02-03T23:12:00Z,27.6346,-97.2370,0.889,1111122 
TCOON,ioos:station:TCOON:005:1,2015-02-04T00:18:00Z,27.6346,-97.2370,0.905,1111122 
TCOON,ioos:station:TCOON:005:1,2015-02-04T01:24:00Z,27.6346,-97.2370,0.914,1111122 
TCOON,ioos:station:TCOON:005:1,2015-02-04T02:18:00Z,27.6346,-97.2370,0.922,1111122 
TCOON,ioos:station:TCOON:005:1,2015-02-04T03:12:00Z,27.6346,-97.2370,0.934,1111122 
TCOON,ioos:station:TCOON:005:1,2015-02-04T04:18:00Z,27.6346,-97.2370,0.955,1111122 
TCOON,ioos:station:TCOON:005:1,2015-02-04T05:18:00Z,27.6346,-97.2370,0.965,1111122 
TCOON,ioos:station:TCOON:005:1,2015-02-04T06:18:00Z,27.6346,-97.2370,0.977,1111122 
TCOON,ioos:station:TCOON:005:1,2015-02-04T07:18:00Z,27.6346,-97.2370,0.993,1111122 
TCOON,ioos:station:TCOON:005:1,2015-02-04T08:18:00Z,27.6346,-97.2370,0.996,1111122 
TCOON,ioos:station:TCOON:005:1,2015-02-04T09:12:00Z,27.6346,-97.2370,1.016,1111122 
TCOON,ioos:station:TCOON:005:1,2015-02-04T10:12:00Z,27.6346,-97.2370,1.041,1111122 
TCOON,ioos:station:TCOON:005:1,2015-02-04T11:24:00Z,27.6346,-97.2370,1.049,1111122 
TCOON,ioos:station:TCOON:005:1,2015-02-04T12:18:00Z,27.6346,-97.2370,1.052,1111122 
TCOON,ioos:station:TCOON:005:1,2015-02-04T13:18:00Z,27.6346,-97.2370,1.043,1111122 
TCOON,ioos:station:TCOON:005:1,2015-02-04T14:18:00Z,27.6346,-97.2370,1.028,1111122 
TCOON,ioos:station:TCOON:005:1,2015-02-04T15:18:00Z,27.6346,-97.2370,1.002,1111122 
TCOON,ioos:station:TCOON:005:1,2015-02-04T16:18:00Z,27.6346,-97.2370,0.989,1111122 
TCOON,ioos:station:TCOON:005:1,2015-02-04T17:18:00Z,27.6346,-97.2370,0.974,1111122 
TCOON,ioos:station:TCOON:005:1,2015-02-04T18:18:00Z,27.6346,-97.2370,0.961,1111122 
TCOON,ioos:station:TCOON:005:1,2015-02-04T19:18:00Z,27.6346,-97.2370,0.953,1111122 
TCOON,ioos:station:TCOON:005:1,2015-02-04T20:18:00Z,27.6346,-97.2370,0.953,1111122 
TCOON,ioos:station:TCOON:005:1,2015-02-04T21:18:00Z,27.6346,-97.2370,0.949,1111122 
TCOON,ioos:station:TCOON:005:1,2015-02-04T22:42:00Z,27.6346,-97.2370,0.946,1111122 
TCOON,ioos:station:TCOON:005:1,2015-02-04T23:24:00Z,27.6346,-97.2370,0.948,1111122 
TCOON,ioos:station:TCOON:005:1,2015-02-05T00:12:00Z,27.6346,-97.2370,0.956,1111122 
TCOON,ioos:station:TCOON:005:1,2015-02-05T01:18:00Z,27.6346,-97.2370,0.971,1111122 
TCOON,ioos:station:TCOON:005:1,2015-02-05T02:18:00Z,27.6346,-97.2370,0.983,1111122 
TCOON,ioos:station:TCOON:005:1,2015-02-05T03:12:00Z,27.6346,-97.2370,0.994,1111122 
TCOON,ioos:station:TCOON:005:1,2015-02-05T04:18:00Z,27.6346,-97.2370,1.01,1111122 
TCOON,ioos:station:TCOON:005:1,2015-02-05T05:12:00Z,27.6346,-97.2370,1.016,1111122 
TCOON,ioos:station:TCOON:005:1,2015-02-05T06:18:00Z,27.6346,-97.2370,1.023,1111122 
TCOON,ioos:station:TCOON:005:1,2015-02-05T07:12:00Z,27.6346,-97.2370,1.028,1111122 
TCOON,ioos:station:TCOON:005:1,2015-02-05T08:12:00Z,27.6346,-97.2370,1.04,1111122 
TCOON,ioos:station:TCOON:005:1,2015-02-05T09:12:00Z,27.6346,-97.2370,1.061,1111122 
TCOON,ioos:station:TCOON:005:1,2015-02-05T10:12:00Z,27.6346,-97.2370,1.055,1111122 
TCOON,ioos:station:TCOON:005:1,2015-02-05T11:12:00Z,27.6346,-97.2370,1.065,1111122 
TCOON,ioos:station:TCOON:005:1,2015-02-05T12:12:00Z,27.6346,-97.2370,1.071,1111122 
TCOON,ioos:station:TCOON:005:1,2015-02-05T13:12:00Z,27.6346,-97.2370,1.061,1111122 
TCOON,ioos:station:TCOON:005:1,2015-02-05T14:12:00Z,27.6346,-97.2370,1.057,1111122 
TCOON,ioos:station:TCOON:005:1,2015-02-05T15:18:00Z,27.6346,-97.2370,1.047,1111122 
TCOON,ioos:station:TCOON:005:1,2015-02-05T16:18:00Z,27.6346,-97.2370,1.055,1111122 
TCOON,ioos:station:TCOON:005:1,2015-02-05T17:18:00Z,27.6346,-97.2370,1.051,1111122 
TCOON,ioos:station:TCOON:005:1,2015-02-05T18:18:00Z,27.6346,-97.2370,1.022,1111122 
TCOON,ioos:station:TCOON:005:1,2015-02-05T19:18:00Z,27.6346,-97.2370,0.997,1111122 
TCOON,ioos:station:TCOON:005:1,2015-02-05T20:24:00Z,27.6346,-97.2370,0.974,1111122 
TCOON,ioos:station:TCOON:005:1,2015-02-05T21:18:00Z,27.6346,-97.2370,0.974,1111122 
TCOON,ioos:station:TCOON:005:1,2015-02-05T22:24:00Z,27.6346,-97.2370,0.983,1111122 
TCOON,ioos:station:TCOON:005:1,2015-02-05T23:18:00Z,27.6346,-97.2370,0.979,1111122 
TCOON,ioos:station:TCOON:005:1,2015-02-06T00:12:00Z,27.6346,-97.2370,0.979,1111122 
TCOON,ioos:station:TCOON:005:1,2015-02-06T01:18:00Z,27.6346,-97.2370,0.976,1111122 
TCOON,ioos:station:TCOON:005:1,2015-02-06T02:12:00Z,27.6346,-97.2370,0.977,1111122 
TCOON,ioos:station:TCOON:005:1,2015-02-06T03:12:00Z,27.6346,-97.2370,0.981,1111122 
TCOON,ioos:station:TCOON:005:1,2015-02-06T04:12:00Z,27.6346,-97.2370,0.984,1111122 
TCOON,ioos:station:TCOON:005:1,2015-02-06T05:12:00Z,27.6346,-97.2370,0.983,1111122 
TCOON,ioos:station:TCOON:005:1,2015-02-06T06:18:00Z,27.6346,-97.2370,0.982,1111122 
TCOON,ioos:station:TCOON:005:1,2015-02-06T07:12:00Z,27.6346,-97.2370,0.976,1111122 
TCOON,ioos:station:TCOON:005:1,2015-02-06T08:12:00Z,27.6346,-97.2370,0.969,1111122 
TCOON,ioos:station:TCOON:005:1,2015-02-06T09:12:00Z,27.6346,-97.2370,0.961,1111122 
TCOON,ioos:station:TCOON:005:1,2015-02-06T10:12:00Z,27.6346,-97.2370,0.952,1111122 
TCOON,ioos:station:TCOON:005:1,2015-02-06T11:12:00Z,27.6346,-97.2370,0.944,1111122 
TCOON,ioos:station:TCOON:005:1,2015-02-06T12:12:00Z,27.6346,-97.2370,0.939,1111122 
TCOON,ioos:station:TCOON:005:1,2015-02-06T13:12:00Z,27.6346,-97.2370,0.931,1111122 
TCOON,ioos:station:TCOON:005:1,2015-02-06T14:12:00Z,27.6346,-97.2370,0.921,1111122 
TCOON,ioos:station:TCOON:005:1,2015-02-06T15:18:00Z,27.6346,-97.2370,0.909,1111122 
TCOON,ioos:station:TCOON:005:1,2015-02-06T16:18:00Z,27.6346,-97.2370,0.898,1111122 
TCOON,ioos:station:TCOON:005:1,2015-02-06T17:18:00Z,27.6346,-97.2370,0.887,1111122 
TCOON,ioos:station:TCOON:005:1,2015-02-06T18:18:00Z,27.6346,-97.2370,0.877,1111122 
TCOON,ioos:station:TCOON:005:1,2015-02-06T19:12:00Z,27.6346,-97.2370,0.873,1111122 
TCOON,ioos:station:TCOON:005:1,2015-02-06T20:12:00Z,27.6346,-97.2370,0.86,1111122 
TCOON,ioos:station:TCOON:005:1,2015-02-06T21:12:00Z,27.6346,-97.2370,0.858,1111122 
TCOON,ioos:station:TCOON:005:1,2015-02-06T22:18:00Z,27.6346,-97.2370,0.862,1111122 
TCOON,ioos:station:TCOON:005:1,2015-02-06T23:12:00Z,27.6346,-97.2370,0.863,1111122 
TCOON,ioos:station:TCOON:005:1,2015-02-07T00:18:00Z,27.6346,-97.2370,0.872,1111122 
TCOON,ioos:station:TCOON:005:1,2015-02-07T01:24:00Z,27.6346,-97.2370,0.879,1111122 
TCOON,ioos:station:TCOON:005:1,2015-02-07T02:18:00Z,27.6346,-97.2370,0.887,1111122 
TCOON,ioos:station:TCOON:005:1,2015-02-07T03:12:00Z,27.6346,-97.2370,0.898,1111122 
TCOON,ioos:station:TCOON:005:1,2015-02-07T04:18:00Z,27.6346,-97.2370,0.906,1111122 
TCOON,ioos:station:TCOON:005:1,2015-02-07T05:12:00Z,27.6346,-97.2370,0.909,1111122 
TCOON,ioos:station:TCOON:005:1,2015-02-07T06:18:00Z,27.6346,-97.2370,0.914,1111122 
TCOON,ioos:station:TCOON:005:1,2015-02-07T07:12:00Z,27.6346,-97.2370,0.915,1111122 
TCOON,ioos:station:TCOON:005:1,2015-02-07T08:12:00Z,27.6346,-97.2370,0.916,1111122 
TCOON,ioos:station:TCOON:005:1,2015-02-07T09:12:00Z,27.6346,-97.2370,0.919,1111122 
TCOON,ioos:station:TCOON:005:1,2015-02-07T10:12:00Z,27.6346,-97.2370,0.923,1111122 
TCOON,ioos:station:TCOON:005:1,2015-02-07T11:12:00Z,27.6346,-97.2370,0.926,1111122 
TCOON,ioos:station:TCOON:005:1,2015-02-07T12:12:00Z,27.6346,-97.2370,0.925,1111122 
TCOON,ioos:station:TCOON:005:1,2015-02-07T13:12:00Z,27.6346,-97.2370,0.923,1111122 
TCOON,ioos:station:TCOON:005:1,2015-02-07T14:12:00Z,27.6346,-97.2370,0.925,1111122 
TCOON,ioos:station:TCOON:005:1,2015-02-07T15:12:00Z,27.6346,-97.2370,0.924,1111122 
TCOON,ioos:station:TCOON:005:1,2015-02-07T16:12:00Z,27.6346,-97.2370,0.92,1111122 
TCOON,ioos:station:TCOON:005:1,2015-02-07T17:12:00Z,27.6346,-97.2370,0.903,1111122 
TCOON,ioos:station:TCOON:005:1,2015-02-07T18:18:00Z,27.6346,-97.2370,0.895,1111122 
TCOON,ioos:station:TCOON:005:1,2015-02-07T19:12:00Z,27.6346,-97.2370,0.89,1111122 
TCOON,ioos:station:TCOON:005:1,2015-02-07T20:12:00Z,27.6346,-97.2370,0.902,1111122 
TCOON,ioos:station:TCOON:005:1,2015-02-07T21:12:00Z,27.6346,-97.2370,0.909,1111122 
TCOON,ioos:station:TCOON:005:1,2015-02-07T22:12:00Z,27.6346,-97.2370,0.912,1111122 
TCOON,ioos:station:TCOON:005:1,2015-02-07T23:12:00Z,27.6346,-97.2370,0.916,1111122 
TCOON,ioos:station:TCOON:005:1,2015-02-08T00:12:00Z,27.6346,-97.2370,0.92,1111122 
TCOON,ioos:station:TCOON:005:1,2015-02-08T01:18:00Z,27.6346,-97.2370,0.928,1111122 
TCOON,ioos:station:TCOON:005:1,2015-02-08T02:12:00Z,27.6346,-97.2370,0.94,1111122 
TCOON,ioos:station:TCOON:005:1,2015-02-08T03:12:00Z,27.6346,-97.2370,0.951,1111122 
TCOON,ioos:station:TCOON:005:1,2015-02-08T04:12:00Z,27.6346,-97.2370,0.962,1111122 
TCOON,ioos:station:TCOON:005:1,2015-02-08T05:12:00Z,27.6346,-97.2370,0.963,1111122 
TCOON,ioos:station:TCOON:005:1,2015-02-08T06:18:00Z,27.6346,-97.2370,0.959,1111122 
TCOON,ioos:station:TCOON:005:1,2015-02-08T07:12:00Z,27.6346,-97.2370,0.954,1111122 
TCOON,ioos:station:TCOON:005:1,2015-02-08T08:18:00Z,27.6346,-97.2370,0.955,1111122 
TCOON,ioos:station:TCOON:005:1,2015-02-08T09:18:00Z,27.6346,-97.2370,0.965,1111122 
TCOON,ioos:station:TCOON:005:1,2015-02-08T10:12:00Z,27.6346,-97.2370,0.968,1111122 
TCOON,ioos:station:TCOON:005:1,2015-02-08T11:12:00Z,27.6346,-97.2370,0.963,1111122 
TCOON,ioos:station:TCOON:005:1,2015-02-08T12:12:00Z,27.6346,-97.2370,0.964,1111122 
TCOON,ioos:station:TCOON:005:1,2015-02-08T13:12:00Z,27.6346,-97.2370,0.961,1111122 
TCOON,ioos:station:TCOON:005:1,2015-02-08T14:12:00Z,27.6346,-97.2370,0.956,1111122 
TCOON,ioos:station:TCOON:005:1,2015-02-08T15:12:00Z,27.6346,-97.2370,0.95,1111122 
TCOON,ioos:station:TCOON:005:1,2015-02-08T16:12:00Z,27.6346,-97.2370,0.934,1111122 
TCOON,ioos:station:TCOON:005:1,2015-02-08T17:12:00Z,27.6346,-97.2370,0.922,1111122 
TCOON,ioos:station:TCOON:005:1,2015-02-08T18:12:00Z,27.6346,-97.2370,0.917,1111122 
TCOON,ioos:station:TCOON:005:1,2015-02-08T19:12:00Z,27.6346,-97.2370,0.912,1111122 
TCOON,ioos:station:TCOON:005:1,2015-02-08T20:12:00Z,27.6346,-97.2370,0.906,1111122 
TCOON,ioos:station:TCOON:005:1,2015-02-08T21:12:00Z,27.6346,-97.2370,0.907,1111122 
TCOON,ioos:station:TCOON:005:1,2015-02-08T22:12:00Z,27.6346,-97.2370,0.911,1111122 
TCOON,ioos:station:TCOON:005:1,2015-02-08T23:12:00Z,27.6346,-97.2370,0.914,1111122 
TCOON,ioos:station:TCOON:005:1,2015-02-09T00:18:00Z,27.6346,-97.2370,0.91,1111122 
TCOON,ioos:station:TCOON:005:1,2015-02-09T01:12:00Z,27.6346,-97.2370,0.906,1111122 
TCOON,ioos:station:TCOON:005:1,2015-02-09T02:18:00Z,27.6346,-97.2370,0.901,1111122 
TCOON,ioos:station:TCOON:005:1,2015-02-09T03:12:00Z,27.6346,-97.2370,0.9,1111122 
TCOON,ioos:station:TCOON:005:1,2015-02-09T04:12:00Z,27.6346,-97.2370,0.901,1111122 
TCOON,ioos:station:TCOON:005:1,2015-02-09T05:12:00Z,27.6346,-97.2370,0.904,1111122 
TCOON,ioos:station:TCOON:005:1,2015-02-09T06:12:00Z,27.6346,-97.2370,0.904,1111122 
TCOON,ioos:station:TCOON:005:1,2015-02-09T07:12:00Z,27.6346,-97.2370,0.897,1111122 
TCOON,ioos:station:TCOON:005:1,2015-02-09T08:12:00Z,27.6346,-97.2370,0.892,1111122 
TCOON,ioos:station:TCOON:005:1,2015-02-09T09:12:00Z,27.6346,-97.2370,0.887,1111122 
TCOON,ioos:station:TCOON:005:1,2015-02-09T10:12:00Z,27.6346,-97.2370,0.886,1111122 
TCOON,ioos:station:TCOON:005:1,2015-02-09T11:12:00Z,27.6346,-97.2370,0.883,1111122 
TCOON,ioos:station:TCOON:005:1,2015-02-09T12:12:00Z,27.6346,-97.2370,0.879,1111122 
TCOON,ioos:station:TCOON:005:1,2015-02-09T13:12:00Z,27.6346,-97.2370,0.876,1111122 
TCOON,ioos:station:TCOON:005:1,2015-02-09T14:12:00Z,27.6346,-97.2370,0.88,1111122 
TCOON,ioos:station:TCOON:005:1,2015-02-09T15:12:00Z,27.6346,-97.2370,0.876,1111122 
TCOON,ioos:station:TCOON:005:1,2015-02-09T16:18:00Z,27.6346,-97.2370,0.87,1111122 
TCOON,ioos:station:TCOON:005:1,2015-02-09T17:18:00Z,27.6346,-97.2370,0.865,1111122 
TCOON,ioos:station:TCOON:005:1,2015-02-09T18:18:00Z,27.6346,-97.2370,0.858,1111122 
TCOON,ioos:station:TCOON:005:1,2015-02-09T19:18:00Z,27.6346,-97.2370,0.853,1111122 
TCOON,ioos:station:TCOON:005:1,2015-02-09T20:18:00Z,27.6346,-97.2370,0.849,1111122 
TCOON,ioos:station:TCOON:005:1,2015-02-09T21:18:00Z,27.6346,-97.2370,0.848,1111122 
TCOON,ioos:station:TCOON:005:1,2015-02-09T22:18:00Z,27.6346,-97.2370,0.843,1111122 
TCOON,ioos:station:TCOON:005:1,2015-02-09T23:24:00Z,27.6346,-97.2370,0.849,1111122 
TCOON,ioos:station:TCOON:005:1,2015-02-10T00:18:00Z,27.6346,-97.2370,0.85,1111122 
TCOON,ioos:station:TCOON:005:1,2015-02-10T01:30:00Z,27.6346,-97.2370,0.849,1111122 
TCOON,ioos:station:TCOON:005:1,2015-02-10T02:18:00Z,27.6346,-97.2370,0.847,1111122 
TCOON,ioos:station:TCOON:005:1,2015-02-10T03:12:00Z,27.6346,-97.2370,0.846,1111122 
TCOON,ioos:station:TCOON:005:1,2015-02-10T04:18:00Z,27.6346,-97.2370,0.845,1111122 
TCOON,ioos:station:TCOON:005:1,2015-02-10T05:18:00Z,27.6346,-97.2370,0.843,1111122 
TCOON,ioos:station:TCOON:005:1,2015-02-10T06:18:00Z,27.6346,-97.2370,0.836,1111122 
TCOON,ioos:station:TCOON:005:1,2015-02-10T07:12:00Z,27.6346,-97.2370,0.827,1111122 
TCOON,ioos:station:TCOON:005:1,2015-02-10T08:12:00Z,27.6346,-97.2370,0.819,1111122 
TCOON,ioos:station:TCOON:005:1,2015-02-10T09:18:00Z,27.6346,-97.2370,0.817,1111122 
TCOON,ioos:station:TCOON:005:1,2015-02-10T10:12:00Z,27.6346,-97.2370,0.81,1111122 
TCOON,ioos:station:TCOON:005:1,2015-02-10T11:12:00Z,27.6346,-97.2370,0.801,1111122 
TCOON,ioos:station:TCOON:005:1,2015-02-10T12:18:00Z,27.6346,-97.2370,0.795,1111122 
TCOON,ioos:station:TCOON:005:1,2015-02-10T13:12:00Z,27.6346,-97.2370,0.791,1111122 
TCOON,ioos:station:TCOON:005:1,2015-02-10T14:12:00Z,27.6346,-97.2370,0.788,1111122 
TCOON,ioos:station:TCOON:005:1,2015-02-10T15:18:00Z,27.6346,-97.2370,0.796,1111122 
TCOON,ioos:station:TCOON:005:1,2015-02-10T16:18:00Z,27.6346,-97.2370,0.784,1111122 
TCOON,ioos:station:TCOON:005:1,2015-02-10T17:18:00Z,27.6346,-97.2370,0.782,1111122 
TCOON,ioos:station:TCOON:005:1,2015-02-10T18:12:00Z,27.6346,-97.2370,0.795,1111122 
TCOON,ioos:station:TCOON:005:1,2015-02-10T19:18:00Z,27.6346,-97.2370,0.803,1111122 
TCOON,ioos:station:TCOON:005:1,2015-02-10T20:18:00Z,27.6346,-97.2370,0.816,1111122 
TCOON,ioos:station:TCOON:005:1,2015-02-10T21:18:00Z,27.6346,-97.2370,0.827,1111122 
TCOON,ioos:station:TCOON:005:1,2015-02-10T22:18:00Z,27.6346,-97.2370,0.837,1111122 
TCOON,ioos:station:TCOON:005:1,2015-02-10T23:18:00Z,27.6346,-97.2370,0.838,1111122 
TCOON,ioos:station:TCOON:005:1,2015-02-11T00:12:00Z,27.6346,-97.2370,0.841,1111122 
TCOON,ioos:station:TCOON:005:1,2015-02-11T01:12:00Z,27.6346,-97.2370,0.847,1111122 
TCOON,ioos:station:TCOON:005:1,2015-02-11T02:12:00Z,27.6346,-97.2370,0.857,1111122 
TCOON,ioos:station:TCOON:005:1,2015-02-11T03:12:00Z,27.6346,-97.2370,0.865,1111122 
TCOON,ioos:station:TCOON:005:1,2015-02-11T04:18:00Z,27.6346,-97.2370,0.871,1111122 
TCOON,ioos:station:TCOON:005:1,2015-02-11T05:12:00Z,27.6346,-97.2370,0.87,1111122 
TCOON,ioos:station:TCOON:005:1,2015-02-11T06:18:00Z,27.6346,-97.2370,0.869,1111122 
TCOON,ioos:station:TCOON:005:1,2015-02-11T07:12:00Z,27.6346,-97.2370,0.863,1111122 
TCOON,ioos:station:TCOON:005:1,2015-02-11T08:12:00Z,27.6346,-97.2370,0.862,1111122 
TCOON,ioos:station:TCOON:005:1,2015-02-11T09:12:00Z,27.6346,-97.2370,0.856,1111122 
TCOON,ioos:station:TCOON:005:1,2015-02-11T10:12:00Z,27.6346,-97.2370,0.84,1111122 
TCOON,ioos:station:TCOON:005:1,2015-02-11T11:12:00Z,27.6346,-97.2370,0.843,1111122 
TCOON,ioos:station:TCOON:005:1,2015-02-11T12:12:00Z,27.6346,-97.2370,0.84,1111122 
TCOON,ioos:station:TCOON:005:1,2015-02-11T13:12:00Z,27.6346,-97.2370,0.842,1111122 
TCOON,ioos:station:TCOON:005:1,2015-02-11T14:12:00Z,27.6346,-97.2370,0.842,1111122 
TCOON,ioos:station:TCOON:005:1,2015-02-11T15:18:00Z,27.6346,-97.2370,0.85,1111122 
TCOON,ioos:station:TCOON:005:1,2015-02-11T16:18:00Z,27.6346,-97.2370,0.846,1111122 
TCOON,ioos:station:TCOON:005:1,2015-02-11T17:18:00Z,27.6346,-97.2370,0.852,1111122 
TCOON,ioos:station:TCOON:005:1,2015-02-11T18:12:00Z,27.6346,-97.2370,0.863,1111122 
TCOON,ioos:station:TCOON:005:1,2015-02-11T19:18:00Z,27.6346,-97.2370,0.881,1111122 
TCOON,ioos:station:TCOON:005:1,2015-02-11T20:18:00Z,27.6346,-97.2370,0.889,1111122 
TCOON,ioos:station:TCOON:005:1,2015-02-11T21:18:00Z,27.6346,-97.2370,0.903,1111122 
TCOON,ioos:station:TCOON:005:1,2015-02-11T22:18:00Z,27.6346,-97.2370,0.913,1111122 
TCOON,ioos:station:TCOON:005:1,2015-02-11T23:18:00Z,27.6346,-97.2370,0.923,1111122 
TCOON,ioos:station:TCOON:005:1,2015-02-12T00:12:00Z,27.6346,-97.2370,0.928,1111122 
TCOON,ioos:station:TCOON:005:1,2015-02-12T01:18:00Z,27.6346,-97.2370,0.929,1111122 
TCOON,ioos:station:TCOON:005:1,2015-02-12T02:18:00Z,27.6346,-97.2370,0.934,1111122 
TCOON,ioos:station:TCOON:005:1,2015-02-12T03:12:00Z,27.6346,-97.2370,0.937,1111122 
TCOON,ioos:station:TCOON:005:1,2015-02-12T04:12:00Z,27.6346,-97.2370,0.943,1111122 
TCOON,ioos:station:TCOON:005:1,2015-02-12T05:18:00Z,27.6346,-97.2370,0.941,1111122 
TCOON,ioos:station:TCOON:005:1,2015-02-12T06:18:00Z,27.6346,-97.2370,0.938,1111122 
TCOON,ioos:station:TCOON:005:1,2015-02-12T07:12:00Z,27.6346,-97.2370,0.933,1111122 
TCOON,ioos:station:TCOON:005:1,2015-02-12T08:18:00Z,27.6346,-97.2370,0.924,1111122 
TCOON,ioos:station:TCOON:005:1,2015-02-12T09:12:00Z,27.6346,-97.2370,0.912,1111122 
TCOON,ioos:station:TCOON:005:1,2015-02-12T10:12:00Z,27.6346,-97.2370,0.898,1111122 
TCOON,ioos:station:TCOON:005:1,2015-02-12T11:12:00Z,27.6346,-97.2370,0.884,1111122 
TCOON,ioos:station:TCOON:005:1,2015-02-12T12:12:00Z,27.6346,-97.2370,0.871,1111122 
TCOON,ioos:station:TCOON:005:1,2015-02-12T13:18:00Z,27.6346,-97.2370,0.88,1111122 
TCOON,ioos:station:TCOON:005:1,2015-02-12T14:18:00Z,27.6346,-97.2370,0.887,1111122 
TCOON,ioos:station:TCOON:005:1,2015-02-12T15:18:00Z,27.6346,-97.2370,0.874,1111122 
TCOON,ioos:station:TCOON:005:1,2015-02-12T16:18:00Z,27.6346,-97.2370,0.867,1111122 
TCOON,ioos:station:TCOON:005:1,2015-02-12T17:18:00Z,27.6346,-97.2370,0.861,1111122 
TCOON,ioos:station:TCOON:005:1,2015-02-12T18:18:00Z,27.6346,-97.2370,0.862,1111122 
TCOON,ioos:station:TCOON:005:1,2015-02-12T19:18:00Z,27.6346,-97.2370,0.864,1111122 
TCOON,ioos:station:TCOON:005:1,2015-02-12T20:18:00Z,27.6346,-97.2370,0.877,1111122 